Location: Unspecified
(41.5000°N, 0.0000°E)
Time: 06:20:51
(UTC+00:00)

Vanguard 2 - Pass Details

Date: 19 June 2019
Orbit: 554 x 2938 km, 32.9° (Epoch: 13 October)

Event Time Altitude Azimuth Distance (km) Brightness Sun altitude
Rises 13:17:44 0° 270° (W) 4,595 11.7 65.9°
Reaches altitude 10° 13:20:31 10° 264° (W) 3,898 11.6 65.5°
Maximum altitude 13:30:41 44° 197° (SSW) 2,865 11.7 64.0°
Drops below altitude 10° 13:45:35 10° 133° (SE) 5,612 12.0 61.7°
Sets 13:50:35 0° 128° (SE) 6,749 12.2 60.9°
